SL-16 DEB, 22326

Orbit data source: Space-Track

SL-16 DEB, 22326 is space debris in LEO originally from a launch on Fri, 25 Dec 1992 UTC launched from the Tyuratam Missile And Space Complex (TTMTR). Debris objects in space refer to the collection of defunct objects orbiting the Earth. Examples of debris include non-operational satellites, rocket bodies, and fragments generated from explosions, collisions, or faulty payload assembly.

Loading next visibility...
Identifier
22326, 1992-093P
Orbit
LEO
Country
Flag of CISCIS
Related business
Manufacturer
Unknown
Mission
Spacecraft
Bus & Motor
Unknown
Mass
Unknown
Launch date (UTC)
1992-12-25 (33 years ago)
Launch vehicle
Unknown
Launch site
Tyuratam Missile And Space Complex (TTMTR)
Object type
Payload
Rocket body
Debris
Shape & HBR
Unknown shape, 0.1 m
Radar Cross Section
Small (<0.1 m²)

Expand to show TLE details & history
Last TLE update: 12 hours ago

TLE from 12 hours ago
0 SL-16 DEB
1 22326U 92093P   25352.38687874  .00001372  00000-0  91791-3 0  9999
2 22326  70.6616 108.1023 0136164 146.2974 273.7367 13.98349864669205
Epoch: 2025-12-18T09:17Z
TLE epoch observation values (Epoch: 2025-12-18T09:17:06.323Z)
Latitude
53.65614°
Longitude
-90.09105°
Altitude
902.634 km
Speed
7.409 km/s
True Right ascension
09h 05m 42s
True Declination
53° 29' 42"
Sunlit
Object was in full shadow at epoch
Visualization orbit readout
Latitude
Unknown
Longitude
Unknown
Altitude
Unknown
Speed
Unknown
Apparent Right ascension
Unknown
Apparent Declination
Unknown
Sunlit
N/A
Visualization observer readout
Local Sidereal Time
19:54:56
Azimuth
Unknown
Elevation
Unknown
Doppler factor
Unknown
Orbital elements
Apogee altitude
996.557 km
Perigee altitude
798.421 km
Semi-major axis
7,275.626 km
Eccentricity
0.01362
Inclination
70.6616°
RAAN
108.1023°
Arg. of periapsis
146.2974°
True anomaly
272.17816°
Mean anomaly
273.7367°
Eccentric anomaly
272.95758°
Mean motion
3.49734 °/min
Orbital period
102.94 mins
BSTAR
0.00091791
Loading maneuver chart data...
Computing Atmospheric mass density...

Documentation

Showing up to 5 results
|